Location: Village de las Huertas
(35.3014°N, 106.4095°W)
Time: 08:52:25
(UTC+00:00)

SL-16 R/B - Pass Details

Date: 29 October 2020
Orbit: 842 x 846 km, 71.0° (Epoch: 04 December)

Event Time Altitude Azimuth Distance (km) Brightness Sun altitude
Rises 12:18:38 0° 348° (NNW) 3,410 5.2 -14.1°
Reaches altitude 10° 12:21:19 10° 357° (N) 2,472 4.5 -13.5°
Maximum altitude 12:26:28 35° 62° (ENE) 1,348 3.8 -12.5°
Drops below altitude 10° 12:31:35 10° 127° (SE) 2,461 5.7 -11.4°
Sets 12:34:14 0° 136° (SE) 3,392 6.3 -10.9°
